Вернуться в каталог

STARLINK-34723

АктивенСвязьSSO
NORAD 64842·PAYLOAD·🇺🇸 United States

Запущен Jul 19, 2025 с Vandenberg Space Force Base

Loading…

Ближайшие Пролёты (ближайшие 24 часа)

TLE

СвежийSource: CelesTrak SupGP

Эпоха: Sep 15, 2026, 03:29 UTC

1 64842C 25152A   26258.14562500 -.00027789  00000+0 -86243-3 0  2583
2 64842  97.2848 108.8043 0001709  91.6972 327.2228 15.33460685    17

Отслеживайте STARLINK-34723 в реальном времени с AllMySat

Download on the App Store